Wind_Speed
27 26 25 25 23 20 19 17 16 16 14 13 13 12 11 10 10 9 8 8 8 7 6 6 7 7 6 6 6 6 4 4 6 5 5 6 7 8 8 9 10 10
29 28 26 27 25 21 20 17 16 16 15 14 13 12 11 11 11 10 10 10 8 7 6 5 6 6 6 6 7 7 6 5 6 6 6 7 7 8 9 10 11 12
31 29 28 27 24 23 21 18 16 16 16 15 12 11 11 12 12 12 11 8 6 6 5 5 5 5 5 6 7 7 6 7 6 6 7 6 7 8 9 11 12 13
32 30 28 26 24 24 22 20 18 17 16 15 12 12 12 12 13 13 10 8 6 7 7 6 6 6 3 4 6 5 6 7 6 7 7 7 7 7 10 11 12 13
32 31 29 26 24 23 22 22 20 17 16 15 13 14 13 12 12 10 9 9 9 8 8 7 8 8 5 4 5 5 6 6 7 6 6 8 8 7 9 12 12 13
32 31 30 27 25 23 22 22 20 17 17 16 16 15 13 11 10 8 9 9 8 7 9 9 8 9 7 5 5 6 6 6 6 5 4 6 8 8 9 11 13 13
32 32 30 28 25 23 22 22 20 19 17 16 17 15 13 13 11 9 9 9 5 5 8 9 9 9 8 7 6 8 7 5 6 5 4 4 6 8 8 10 13 13
33 32 30 28 25 23 23 22 21 20 17 15 15 13 13 14 12 11 10 7 5 6 6 8 8 8 9 7 6 8 8 7 7 6 6 5 5 6 8 11 12 11
33 31 29 28 25 24 24 22 21 22 19 16 14 13 13 14 12 11 10 8 7 6 6 9 8 8 9 8 7 8 8 8 7 6 7 6 7 8 8 11 12 11
32 31 29 28 26 24 25 23 21 22 20 16 15 13 14 14 12 11 11 9 8 7 7 9 9 9 9 8 8 8 8 8 7 6 7 6 6 9 9 9 13 15
32 31 29 28 27 25 24 24 21 20 18 16 15 14 14 14 11 10 10 9 8 7 7 9 9 9 9 8 8 8 8 8 7 7 8 6 5 8 10 10 13 15
32 32 29 27 27 26 24 23 21 18 17 17 15 14 15 14 12 11 11 9 9 8 7 8 9 8 8 7 7 8 8 8 9 9 8 8 7 6 7 10 12 12
32 31 29 26 26 25 23 22 19 17 17 17 16 15 16 16 14 13 11 9 9 8 7 8 9 8 8 8 7 8 8 8 10 10 8 9 10 6 6 9 10 9
31 30 29 26 24 24 23 21 19 17 15 16 16 15 15 14 12 12 12 10 8 8 8 10 11 12 12 10 8 8 8 9 11 10 9 11 11 8 9 10 9 9
30 28 29 26 23 22 21 19 19 18 15 14 15 14 13 13 11 11 12 10 9 11 12 13 14 13 13 11 10 10 9 10 11 10 10 11 10 10 11 10 9 10
31 28 28 26 23 21 20 19 20 20 18 16 16 15 14 13 11 11 11 10 13 15 14 14 14 13 13 13 12 11 10 10 10 9 10 10 9 9 11 10 7 9
29 29 28 25 23 22 21 21 20 19 18 17 16 15 15 14 14 15 14 14 16 16 14 14 14 13 14 14 13 13 12 11 10 8 8 8 7 6 8 8 5 5
24 26 27 25 24 25 24 23 23 22 20 19 18 18 17 16 17 18 16 16 16 15 14 15 15 13 15 15 14 14 12 12 11 9 7 7 5 4 4 5 4 4
23 25 29 29 30 30 28 28 28 27 26 24 24 23 22 20 20 18 17 16 15 14 13 15 15 14 15 16 15 14 13 13 13 11 9 6 5 4 4 3 4 4
25 28 30 31 32 33 32 30 29 28 27 26 26 24 21 20 19 18 16 15 13 11 11 13 14 14 15 16 15 14 14 14 13 12 11 9 6 4 4 4 3 5
24 26 27 28 30 31 30 29 27 25 25 24 21 18 16 15 15 16 15 14 11 9 8 9 11 12 14 15 16 16 14 13 12 10 8 7 5 3 5 6 6 7
22 23 23 24 26 27 26 25 24 22 22 21 18 15 14 13 13 13 14 14 12 8 6 6 7 8 10 13 16 17 16 15 13 10 6 4 4 5 7 10 10 8
21 22 20 20 22 22 21 21 20 18 17 15 14 14 14 13 12 11 12 13 12 11 9 8 7 7 9 11 12 13 13 14 14 12 9 7 8 9 13 16 15 12
15 18 19 19 20 20 20 20 19 16 13 11 10 11 12 12 12 11 11 12 12 12 12 11 10 10 10 11 11 10 12 13 14 15 15 13 12 14 17 18 17 15
11 13 14 14 15 15 15 15 14 14 13 10 7 7 9 9 9 9 10 10 10 11 12 12 12 11 10 10 10 11 12 13 15 17 17 16 15 15 14 13 14 16
13 12 13 12 12 12 12 11 10 9 8 6 6 6 6 5 6 7 8 8 9 10 12 12 13 13 12 10 11 14 16 17 19 20 20 20 19 17 15 14 16 18
Wind_Direction
187 183 182 176 177 180 174 176 173 168 173 175 183 195 190 189 193 186 188 188 182 192 205 200 188 183 183 179 168 161 164 169 163 166 177 167 168 182 182 175 171 169
184 183 180 175 177 172 165 172 175 173 173 174 187 193 184 193 194 184 192 194 190 199 204 208 197 185 188 180 172 171 168 171 168 160 164 160 164 179 176 175 175 167
183 183 179 176 176 168 164 170 176 177 173 173 184 183 183 196 192 192 199 185 184 195 183 198 188 165 183 182 176 179 163 159 161 152 155 161 168 172 169 178 177 162
183 181 177 174 173 168 167 172 176 176 171 170 177 178 188 198 192 194 183 161 191 205 182 185 159 137 164 173 167 173 155 152 158 150 157 165 165 164 165 177 178 165
182 178 174 174 173 169 171 174 173 171 168 169 172 177 191 198 190 179 158 168 211 210 186 177 144 140 159 152 150 152 138 145 156 155 164 164 159 161 165 172 173 170
179 175 174 175 175 174 174 173 169 167 168 168 170 181 191 184 172 158 160 191 216 195 179 172 153 154 154 146 147 132 118 127 134 135 155 162 163 164 165 169 163 163
179 176 176 177 180 178 174 173 169 164 168 173 173 183 185 165 159 167 182 202 202 166 171 172 167 161 151 153 151 130 131 138 123 129 155 158 164 167 169 168 159 159
179 179 177 178 181 177 172 174 169 160 167 178 174 178 176 160 163 178 182 188 173 153 162 162 161 161 153 158 158 148 154 147 130 152 172 156 150 156 158 159 160 164
179 179 177 177 179 174 171 173 169 165 171 175 167 170 168 158 170 183 173 172 169 160 162 154 154 164 158 158 171 167 156 145 147 169 168 152 143 140 144 155 157 155
179 178 175 176 176 172 170 172 173 174 177 171 162 164 161 159 176 182 168 169 169 164 167 156 158 170 160 165 182 171 155 157 169 169 152 143 143 136 135 149 148 143
180 179 175 175 173 170 171 173 177 179 174 165 161 163 159 161 176 174 166 173 170 166 169 159 164 171 162 174 186 171 169 177 171 155 142 142 154 146 143 151 150 149
181 179 177 174 171 170 170 173 177 178 169 162 161 164 162 164 173 169 167 175 169 165 170 163 166 170 165 179 187 174 182 184 167 154 144 146 156 152 150 151 149 152
181 178 175 172 171 170 169 173 175 169 164 163 162 167 170 169 171 167 161 169 170 164 169 167 167 170 170 181 188 181 182 177 166 163 161 158 153 145 146 144 145 154
178 173 169 167 170 170 169 175 173 161 163 170 169 173 173 164 162 162 158 162 165 162 172 178 176 178 179 179 182 181 179 174 169 168 169 160 150 152 154 144 148 160
179 173 166 164 168 169 171 177 170 160 162 167 166 167 161 153 157 161 156 156 164 174 185 187 182 183 183 179 176 175 175 174 169 166 166 159 156 164 158 147 158 169
179 173 168 169 170 166 171 177 168 160 161 162 164 160 150 149 156 156 154 162 177 187 192 189 186 187 185 182 179 174 170 170 168 166 165 161 162 166 155 149 170 183
179 179 179 179 175 170 172 173 167 163 161 158 157 152 145 151 160 163 169 178 185 192 194 188 188 189 186 184 181 175 170 166 164 166 167 164 167 172 161 156 176 209
169 179 182 177 174 174 170 166 164 162 159 155 151 148 152 164 169 172 178 181 185 194 195 190 189 189 189 188 183 180 178 169 163 161 161 163 165 165 162 168 191 236
155 163 171 171 173 173 169 168 167 163 161 161 159 158 164 172 172 175 180 182 188 192 190 191 192 190 192 191 186 184 182 174 168 162 154 158 171 174 180 203 200 207
162 163 169 170 169 169 169 169 168 165 165 168 168 167 172 175 175 178 180 178 183 187 189 196 198 196 197 196 192 189 183 174 169 162 154 149 154 172 197 219 221 218
166 167 166 160 158 163 167 168 167 167 168 168 169 170 172 171 173 180 183 180 183 192 200 204 203 200 202 203 203 202 198 190 187 184 172 160 162 202 234 235 239 243
167 171 164 153 152 159 161 162 162 160 157 161 165 167 167 164 164 171 179 182 190 203 206 197 192 195 201 206 210 212 215 218 219 215 211 219 247 273 274 258 252 257
164 170 164 153 153 153 151 154 154 147 145 153 163 166 168 168 169 172 177 179 183 189 194 197 203 205 203 204 208 212 218 225 225 223 230 247 266 290 294 283 281 289
146 154 153 151 152 152 155 163 167 169 177 183 180 180 185 190 196 200 199 194 189 186 188 200 211 214 212 211 211 213 219 226 231 235 240 245 261 285 291 285 281 282
127 134 138 143 148 151 159 167 172 183 196 200 187 182 189 198 207 211 207 205 203 198 197 206 218 226 227 223 220 223 231 240 246 249 250 253 263 273 272 263 260 262
121 120 121 126 134 142 149 153 155 164 173 169 156 158 168 182 196 206 207 207 209 208 206 210 217 227 234 236 240 248 254 258 259 257 254 255 258 257 249 249 258 264
Height
1504 1506 1508 1510 1513 1516 1518 1520 1523 1525 1527 1529 1530 1531 1533 1533 1534 1535 1536 1537 1537 1538 1539 1540 1542 1543 1544 1545 1546 1547 1548 1549 1550 1551 1552 1553 1554 1555 1556 1557 1558 1558
1502 1504 1506 1508 1511 1515 1517 1519 1522 1524 1527 1529 1530 1531 1532 1532 1533 1534 1535 1536 1537 1538 1539 1540 1542 1543 1544 1545 1546 1547 1548 1549 1550 1551 1552 1553 1554 1555 1556 1557 1558 1559
1501 1503 1505 1508 1510 1513 1516 1519 1521 1524 1526 1528 1529 1530 1531 1531 1533 1533 1534 1536 1537 1538 1539 1540 1541 1543 1544 1545 1546 1547 1548 1549 1550 1551 1552 1552 1553 1554 1556 1556 1557 1558
1500 1503 1505 1508 1510 1512 1515 1518 1521 1523 1525 1527 1528 1529 1530 1531 1532 1533 1534 1536 1537 1538 1539 1540 1541 1543 1544 1545 1546 1547 1548 1549 1550 1551 1551 1552 1553 1554 1555 1556 1557 1559
1500 1503 1505 1508 1510 1512 1514 1517 1520 1522 1524 1526 1527 1529 1530 1531 1532 1533 1534 1536 1537 1538 1539 1540 1542 1543 1544 1545 1547 1548 1549 1549 1550 1551 1552 1552 1553 1554 1555 1556 1557 1559
1500 1502 1504 1507 1509 1512 1514 1516 1519 1521 1523 1525 1527 1528 1529 1530 1532 1533 1535 1536 1537 1538 1539 1540 1542 1543 1545 1546 1547 1548 1549 1550 1551 1552 1552 1552 1553 1554 1554 1555 1557 1559
1500 1502 1504 1507 1509 1511 1513 1516 1518 1520 1522 1524 1526 1527 1529 1530 1532 1534 1535 1536 1537 1538 1539 1540 1541 1543 1545 1546 1547 1549 1550 1551 1552 1553 1553 1553 1553 1554 1554 1555 1557 1558
1501 1502 1504 1506 1508 1511 1513 1515 1518 1520 1522 1524 1525 1527 1529 1530 1532 1534 1535 1536 1537 1538 1539 1540 1541 1543 1545 1547 1548 1549 1550 1552 1553 1554 1554 1554 1554 1554 1554 1555 1556 1558
1501 1503 1505 1507 1508 1511 1513 1515 1517 1519 1521 1523 1525 1527 1528 1531 1532 1534 1535 1536 1537 1538 1539 1540 1542 1543 1545 1547 1548 1549 1550 1552 1553 1554 1554 1554 1555 1555 1555 1556 1556 1557
1501 1503 1505 1507 1508 1510 1513 1515 1516 1518 1520 1523 1525 1527 1529 1531 1532 1533 1535 1536 1537 1538 1539 1540 1542 1544 1545 1547 1548 1549 1551 1552 1553 1553 1554 1555 1555 1556 1556 1556 1557 1558
1501 1502 1504 1506 1508 1510 1512 1514 1516 1517 1520 1523 1525 1527 1529 1531 1532 1534 1535 1536 1538 1539 1540 1541 1542 1544 1545 1547 1548 1549 1551 1552 1553 1554 1555 1555 1556 1556 1557 1557 1558 1559
1499 1501 1504 1506 1508 1510 1512 1514 1515 1517 1520 1523 1525 1527 1528 1530 1532 1534 1535 1537 1538 1539 1540 1542 1543 1544 1546 1547 1548 1549 1551 1552 1553 1554 1555 1556 1556 1556 1557 1558 1558 1559
1499 1502 1504 1507 1509 1511 1512 1513 1515 1518 1520 1523 1525 1526 1528 1530 1532 1534 1535 1537 1538 1540 1541 1542 1543 1545 1546 1547 1548 1550 1551 1552 1553 1554 1555 1556 1557 1557 1557 1558 1559 1560
1501 1503 1505 1508 1509 1511 1512 1513 1516 1518 1520 1522 1524 1526 1528 1530 1532 1534 1535 1537 1539 1540 1541 1542 1543 1544 1545 1547 1548 1550 1551 1552 1553 1554 1555 1556 1557 1557 1558 1559 1560 1561
1502 1504 1506 1507 1509 1511 1513 1514 1517 1519 1521 1522 1524 1526 1528 1530 1532 1534 1535 1538 1539 1540 1540 1541 1542 1544 1545 1547 1549 1550 1551 1552 1553 1554 1555 1556 1557 1557 1558 1559 1560 1560
1502 1503 1505 1507 1508 1511 1514 1515 1518 1520 1521 1523 1525 1526 1528 1530 1532 1534 1536 1537 1538 1538 1539 1541 1542 1544 1545 1547 1549 1550 1551 1552 1553 1554 1555 1556 1557 1557 1558 1559 1560 1560
1501 1503 1505 1507 1509 1512 1515 1517 1519 1520 1522 1523 1525 1527 1529 1530 1532 1533 1534 1535 1536 1538 1540 1541 1543 1544 1546 1547 1549 1550 1551 1552 1553 1555 1555 1556 1557 1557 1558 1559 1560 1560
1502 1503 1506 1508 1511 1514 1516 1517 1518 1520 1521 1523 1525 1527 1528 1529 1530 1532 1533 1535 1536 1538 1540 1541 1543 1544 1546 1547 1549 1550 1551 1552 1553 1554 1555 1556 1557 1558 1559 1559 1560 1560
1502 1504 1507 1509 1511 1513 1514 1515 1516 1518 1519 1521 1523 1525 1525 1527 1530 1531 1533 1535 1536 1538 1540 1541 1543 1544 1545 1547 1548 1550 1551 1551 1552 1553 1554 1556 1557 1558 1559 1559 1560 1560
1502 1504 1506 1507 1508 1510 1511 1513 1515 1517 1519 1521 1523 1524 1526 1528 1530 1531 1533 1535 1536 1538 1540 1541 1543 1544 1545 1547 1548 1549 1550 1551 1551 1552 1553 1554 1555 1557 1558 1558 1559 1559
1502 1503 1505 1505 1507 1509 1510 1512 1515 1517 1519 1522 1524 1525 1527 1529 1530 1531 1533 1535 1537 1539 1540 1542 1543 1544 1545 1546 1548 1549 1550 1550 1551 1551 1552 1553 1553 1554 1555 1555 1556 1557
1501 1503 1505 1506 1507 1509 1510 1512 1515 1517 1519 1522 1524 1526 1527 1529 1530 1531 1533 1535 1537 1539 1540 1542 1543 1543 1544 1546 1547 1548 1549 1549 1550 1551 1551 1551 1552 1553 1554 1555 1556 1555
1501 1503 1505 1507 1508 1509 1510 1513 1516 1518 1520 1522 1524 1526 1528 1529 1530 1531 1533 1535 1537 1538 1540 1541 1542 1543 1544 1545 1546 1547 1548 1548 1549 1550 1550 1550 1551 1552 1554 1555 1556 1556
1503 1504 1506 1508 1509 1510 1511 1513 1515 1518 1521 1523 1524 1526 1527 1528 1530 1531 1533 1534 1536 1538 1540 1541 1542 1542 1543 1544 1545 1546 1547 1547 1548 1548 1548 1549 1550 1551 1553 1553 1555 1555
1506 1507 1508 1509 1510 1512 1513 1514 1516 1519 1521 1523 1524 1525 1527 1528 1529 1530 1532 1534 1535 1537 1539 1540 1541 1541 1542 1543 1544 1545 1546 1546 1546 1546 1547 1548 1549 1551 1553 1552 1553 1554
1508 1509 1510 1511 1512 1514 1515 1516 1518 1520 1522 1523 1524 1526 1527 1528 1529 1531 1532 1534 1535 1537 1538 1539 1540 1540 1541 1542 1543 1543 1544 1544 1544 1545 1546 1547 1548 1551 1552 1551 1551 1551